Location: Nachod
(50.4170°N, 16.1670°E)
Time: 02:47:05
(UTC+02:00)

ISS - Pass Details

Date: 26 March 2019
Orbit: 408 x 410 km, 51.6° (Epoch: 21 April)

Event Time Altitude Azimuth Distance (km) Brightness Sun altitude
Rises 20:59:45 0° 273° (W) 2,336 0.9 -24.6°
Reaches altitude 10° 21:01:51 10° 276° (W) 1,474 -0.3 -24.9°
Enters shadow 21:03:36 28° 284° (WNW) 797 -1.8 -25.1°
